Flag for U.S.A. Weather past 2 weeks in St. Louis, Missouri, U.S.A.

Now
60 °F

Partly sunny.


Feels Like: 60 °F
Forecast: 48 / 75 °F
Wind: 3 mph from South

Location: Lambert-St. Louis International Airport

Current Time: Apr 1, 2015 at 8:47:38 AM

Latest Report: Apr 1, 2015 at 7:51 AM


Visibility: 10 mi

Pressure: 30.01 "Hg

Humidity: 41%

Dew point: 36 °F

Location of St. LouisLocation

Historic Weather in St. Louis — Graph

°F

St. Louis temperature yesterday

Maximum temperature yesterday: 76 °F (at 3:51 PM)
Minimum temperature yesterday: 52 °F (at 5:51 AM)
Average temperature yesterday: 63 °F

Past Weeks' High & Low Weather Summary

 TemperatureHumidityPressure
High76 °F (Mar 31, 3:51 PM)89% (Mar 19, 10:51 PM)30.36 "Hg (Mar 19, 10:51 PM)
Low28 °F (Mar 28, 3:51 AM)19% (Mar 30, 5:51 PM)29.83 "Hg (Mar 24, 10:51 PM)
Average48 °F57%30.12 "Hg
* Reported Mar 17 7:51 AM — Apr 1 7:51 AM, St. Louis, Weather by CustomWeather, © 2015

Note: Actual official high and low records may vary slightly from our data, if they occured in-between our weather recording intervals... More about our weather records

Advertising

St. Louis weather history for previous 24 hours

 ConditionsComfort  
Time TempWeatherWind HumidityBarometerVisibility
7:51 AM
Wed, Apr 1
60 °FPartly sunny.3 mph41%30.01 "Hg10 mi
6:51 AM57 °FPassing clouds.7 mph44%29.99 "Hg10 mi
5:51 AM53 °FPassing clouds.7 mph51%30.00 "Hg10 mi
4:51 AM54 °FPassing clouds.3 mph49%29.98 "Hg10 mi
3:51 AM56 °FClear.5 mph47%29.96 "Hg10 mi
2:51 AM51 °FClear.No wind59%29.97 "Hg10 mi
1:51 AM52 °FClear.No wind57%29.98 "Hg10 mi
12:51 AM53 °FClear.3 mph55%29.98 "Hg10 mi
11:51 PM
Tue, Mar 31
55 °FClear.No wind49%29.98 "Hg10 mi
10:51 PM57 °FClear.No wind47%29.98 "Hg10 mi
9:51 PM60 °FClear.No wind41%29.97 "Hg10 mi
8:51 PM63 °FClear.No wind37%29.96 "Hg10 mi
6:51 PM71 °FSunny.10 mph25%29.91 "Hg10 mi
5:51 PM73 °FSunny.9 mph23%29.91 "Hg10 mi
3:51 PM76 °FPassing clouds.7 mph22%29.92 "Hg10 mi
2:51 PM75 °FPassing clouds.6 mph22%29.93 "Hg10 mi
1:51 PM75 °FPassing clouds.7 mph23%29.94 "Hg10 mi
12:51 PM73 °FPassing clouds.3 mph25%29.96 "Hg10 mi
11:51 AM70 °FPassing clouds.3 mph29%29.98 "Hg10 mi
10:51 AM67 °FPassing clouds.9 mph33%29.98 "Hg10 mi
9:51 AM63 °FScattered clouds.8 mph40%29.96 "Hg10 mi
8:51 AM61 °FScattered clouds.9 mph39%29.94 "Hg10 mi
Weather by CustomWeather, © 2015

See weather overviewHow to use our weather pages